Regional Weather Roundup
Issued by NWS

Home | Current Version | Previous Version | Graphics & Text | Print | Product List | Glossary On
Versions: 1 2 3 4 5 6 7 8 9 10 11 12 13 14 15 16 17 18 19 20 21 22 23 24 25 26 27 28 29 30 31 32 33 34 35 36 37 38 39 40 41 42 43 44 45 46 47 48 49 50
000
ASUS43 KMPX 211101
RWRMN
WEATHER ROUNDUP FOR MINNESOTA
NATIONAL WEATHER SERVICE TWIN CITIES/CHANHASSEN MN
600 AM CDT MON MAY 21 2018


NOTE: "FAIR" INDICATES FEW OR NO CLOUDS BELOW 12,000 FEET WITH NO
SIGNIFICANT WEATHER AND/OR OBSTRUCTIONS TO VISIBILITY. N/A MEANS
CURRENT SKY AND/OR WEATHER CONDITIONS ARE NOT AVAILABLE.

MNZ060>063-068>070-211200-
   Twin Cities Metro

CITY           SKY/WX    TMP DP  RH WIND       PRES   REMARKS
TWIN CITIES    CLOUDY    60  50  69 SE9       30.11F
ST PAUL        CLOUDY    59  47  64 E6        30.12F
CRYSTAL        CLOUDY    60  48  64 SE3       30.10F
BLAINE         CLOUDY    57  48  72 E6        30.11F
LAKEVILLE      CLOUDY    55  50  82 E6        30.10F
EDEN PRAIRIE   CLOUDY    59  49  69 E6        30.09F
SOUTH ST PAUL  CLOUDY    60  48  65 E3        30.11S
LAKE ELMO      CLOUDY    57  46  67 E7        30.13F
$$
MNZ001>005-007-008-013>017-022>024-027-028-211200-
   Northwest Minnesota

CITY           SKY/WX    TMP DP  RH WIND       PRES   REMARKS
BEMIDJI        FAIR      33  32  94 CALM      30.13F
HALLOCK        FAIR      48  36  61 SE9       30.09S
ROSEAU         FAIR      45  37  76 S3        30.11S
WARROAD        FAIR      46  37  71 S3        30.12S
THIEF RVR FALL FAIR      49  34  56 SE3       30.12S
CROOKSTON      FAIR      46  36  66 SE7       30.10F
FOSSTON        FAIR      45  34  65 CALM      30.12S
DETROIT LAKES  FAIR      48  36  61 CALM      30.12S
MOORHEAD       FAIR      48  36  61 E6        30.09F
PARK RAPIDS    FAIR      40  36  86 CALM      30.12F
$$
MNZ006-009>011-018-025>026-211200-
   North Central Minnesota

CITY           SKY/WX    TMP DP  RH WIND       PRES   REMARKS
BAUDETTE       FAIR      43  37  79 SE5       30.13S
FLAG ISLAND    FAIR      52  43  71 SE3       30.10S
INTL FALLS     FAIR      38  35  89 CALM      30.14S
WASKISH        FAIR      36  34  93 CALM      30.13F
BIG FORK       FAIR      34  32  93 CALM      30.16R
LONGVILLE      FAIR      37  36  93 CALM      30.13F
GRAND RAPIDS   FAIR      36  34  92 CALM      30.17S
CRANE LAKE     FAIR      34  32  93 CALM      30.18R
ORR            FAIR      36  30  80 CALM      30.14S
COOK           FAIR      34  32  93 CALM      30.17S
WALKER         FAIR      36  34  94 CALM      30.13F
$$
MNZ012-019>021-037-211200-
   Northeast Minnesota

CITY           SKY/WX    TMP DP  RH WIND       PRES   REMARKS
DULUTH         FAIR      46  33  60 VRB5      30.17S
ELY            FAIR      34  32  93 CALM      30.17S
HIBBING        FAIR      30  29  96 CALM      30.16S
EVELETH        FAIR      32  31  96 CALM      30.18S
DULUTH HARBOR  FAIR      45  43  93 N3        30.18S
TWO HARBORS    FAIR      36  30  80 CALM      30.16R
SILVER BAY     FAIR      32  30  93 CALM      30.16S
GRAND MARAIS     N/A     41  34  76 CALM      30.17S
G MARAIS ARPRT FAIR      37  30  75 CALM      30.19S
$$
MNZ029>031-032-039>041-046>048-054>057-064-211200-
   West Central Minnesota

CITY           SKY/WX    TMP DP  RH WIND       PRES   REMARKS
FERGUS FALLS   MOCLDY    55  36  47 E5        30.05F
WHEATON        CLOUDY    55  36  47 E7        30.09S
MORRIS         CLOUDY    57  39  51 E7        30.07S
ALEXANDRIA     CLOUDY    56  35  45 E6        30.10F
ELBOW LAKE     CLOUDY    55  37  51 SE8       30.08F
WADENA         FAIR      45  36  70 CALM      30.11F
GLENWOOD       FAIR      54  37  54 NE5       30.09F
APPLETON       CLOUDY    57  41  54 E3        30.06F
BENSON         CLOUDY    55  45  67 SE5       30.09F
ORTONVILLE     CLOUDY    57  43  58 E6        30.06S
MADISON        CLOUDY    59  54  82 E3        30.06F
WILLMAR        CLOUDY    54  52  94 CALM      30.11S
$$
MNZ033>034-036-042>043-049>051-058-059-211200-
   Central Minnesota

CITY           SKY/WX    TMP DP  RH WIND       PRES   REMARKS
ST CLOUD       CLOUDY    53  38  56 E6        30.11F
SAUK CENTRE    CLOUDY    53  38  57 E3        30.10S
PAYNESVILLE    LGT RAIN  53  48  82 CALM      30.10F
AITKIN         FAIR      34  32  93 CALM      30.13S
PINE RIVER     FAIR      36  32  87 CALM      30.16F
BRAINERD       FAIR      47  36  65 CALM      30.13F
STAPLES        FAIR      43  37  81 CALM      30.11F
LONG PRAIRIE   MOCLDY    50  36  57 N3        30.11F
LITTLE FALLS   FAIR      52  36  54 E3        30.11S
LITCHFIELD     LGT RAIN  55  55 100 E7        30.10S
BUFFALO        CLOUDY    58  45  60 E3        30.11F
MAPLE LAKE     CLOUDY    55  51  86 CALM      30.11F
HUTCHINSON     RAIN      55  54  95 E6        30.10F
$$
MNZ037-044-045-052-053-211200-
   East Central Minnesota

CITY           SKY/WX    TMP DP  RH WIND       PRES   REMARKS
PRINCETON      CLOUDY    54  43  66 NE3       30.12F
MORA           FAIR      43  36  75 CALM      30.15F
CAMBRIDGE      CLOUDY    54  41  62 CALM      30.13S
RUSH CITY      MOCLDY    48  40  74 E3        30.14S
MOOSE LAKE     FAIR      37  34  87 NE3       30.14F
HINCKLEY       FAIR      39  37  93 CALM      30.15F
CLOQUET        FAIR      39  30  70 CALM      30.16S
MCGREGOR       FAIR      36  32  87 CALM      30.15F
$$
MNZ071>073-080-081-089-090-097-098-211200-
   Southwest Minnesota

CITY           SKY/WX    TMP DP  RH WIND       PRES   REMARKS
MONTEVIDEO     CLOUDY    57  52  82 SE8       30.07F
GRANITE FALLS  CLOUDY    58  56  91 E6        30.08S
CANBY          LGT RAIN  57  56  95 SE6       30.07S
MARSHALL       LGT RAIN  56  54  93 SE10      30.07S FOG
REDWOOD FALLS  LGT RAIN  56  56 100 E5        30.07F FOG
OLIVIA         CLOUDY    54  52  94 SE5       30.07F
PIPESTONE      DRIZZLE   54  54 100 SE6       30.05F
WINDOM         HVY RAIN  55  39  54 E5        30.06S
WORTHINGTON    CLOUDY    54  53  97 E8        30.06F FOG
JACKSON        LGT RAIN  54  54 100 E6        30.06F
TRACY          DRIZZLE   56  56 100 SE6       30.07S
SLAYTON        CLOUDY    54  53  97 E7        30.07F FOG
$$
MNZ065>067-074>077-082>085-091>093-211200-
   South Central Minnesota

CITY           SKY/WX    TMP DP  RH WIND       PRES   REMARKS
MANKATO        CLOUDY    56  53  90 SE8       30.08F
NEW ULM        LGT RAIN  55  54  94 CALM      30.07F
ST JAMES       CLOUDY    55  54  94 E5        30.08F
FAIRMONT       CLOUDY    55  54  96 E7        30.07F FOG
GLENCOE        DRIZZLE   57  57 100 E3        30.09S
FARIBAULT      CLOUDY    57  52  82 CALM      30.10S
OWATONNA       MOCLDY    57  52  82 E10       30.09F
WASECA         CLOUDY    55  52  88 E9        30.09F
ALBERT LEA     LGT RAIN  55  52  88 SE9       30.08S
$$
MNZ078>079-086>088-094>096-211200-
   Southeast Minnesota

CITY           SKY/WX    TMP DP  RH WIND       PRES   REMARKS
ROCHESTER      CLOUDY    55  51  86 E10       30.11F
RED WING       CLOUDY    59  43  55 E6        30.10F
STANTON        CLOUDY    58  51  77 E3        30.09F
DODGE CENTER   CLOUDY    55  50  82 E8        30.10S
WINONA         CLOUDY    55  48  76 SE6       30.10S
AUSTIN         CLOUDY    55  52  88 SE7       30.09S
PRESTON        CLOUDY    54  49  82 E7        30.10F
$$
ABBREVIATIONS USED IN REMARKS
   TC - TEMPERATURES IN CELSIUS
  WCI - WIND CHILL INDEX
   HX - HEAT INDEX
  VSB - VISIBILITY
$$




USA.gov is the U.S. government's official web portal to all federal, state and local government web resources and services.